Lid_Strength_Index
1 0 -1 -1 -1 -1 -1 -1 -1 -1 -1 -1 -1 -1 -1 -1 -1 -1 -1 -1 -1 -1 -1 -1 -1 -1 -1 -1 -1 -1 -1 -1 -1 -1 -1 -1 -1 -1 -1 -1 -1 -1 -1
0 -0 -1 -1 -1 -1 -1 -1 -1 -1 -1 -1 -1 -1 -1 -1 -1 -1 -1 -1 -1 -1 -1 -1 -1 -1 -1 -1 -1 -1 -1 -1 -1 -1 -1 -1 -1 -1 -1 -1 -1 -1 -1
0 -0 -0 -1 -1 -1 -1 -1 -1 -1 -1 -2 -2 -2 -2 -2 -1 -1 -1 -1 -1 -1 -1 -1 -1 -1 -1 -1 -1 -1 -1 -1 -1 -1 -1 -0 -1 -1 -1 -1 -1 -1 -1
-0 -0 -0 -1 -1 -1 -1 -1 -1 -2 -2 -2 -2 -2 -2 -2 -2 -2 -2 -1 -1 -1 -1 -1 -1 -1 -1 -1 -1 -1 -1 -1 -1 -1 -0 -1 -0 -1 -1 -1 -1 -1 -1
0 -0 -0 -1 -1 -1 -1 -2 -2 -2 -2 -2 -2 -2 -2 -2 -2 -2 -2 -2 -2 -2 -1 -1 -1 -1 -1 -1 -1 -1 -1 -1 -1 -1 -0 -0 -0 -1 -1 -1 -1 -1 -1
0 0 -1 -1 -1 -1 -2 -2 -2 -2 -2 -2 -2 -2 -2 -2 -2 -2 -2 -2 -2 -2 -2 -2 -1 -1 -1 -1 -1 -1 -1 -1 -1 1 0 -0 -0 -1 -1 -1 -1 -1 -1
0 0 -0 -1 -2 -2 -2 -2 -2 -2 -2 -2 -2 -2 -2 -2 -2 -2 -2 -2 -2 -2 -2 -2 -2 -2 -1 -1 -1 -1 -1 -1 1 1 0 0 -0 -1 -1 -1 -1 -1 -1
0 0 -0 -2 -2 -2 -2 -2 -2 -2 -2 -2 -2 -2 -2 -2 -2 -2 -2 -2 -2 -2 -2 -2 -2 -2 -2 -2 -1 -1 -1 -1 1 1 1 1 -1 -1 -1 -2 -1 -2 -1
0 0 1 0 -1 -3 -3 -2 -2 -2 -2 -2 -2 -2 -2 -2 -2 -2 -2 -2 -2 -2 -2 -2 -1 -2 -1 -1 -1 -1 -1 -1 1 1 0 -0 -1 -2 -1 -1 -1 -1 -1
1 2 2 2 4 2 1 -2 -2 -2 -2 -2 -1 -0 0 0 -1 -1 -2 -2 -2 -2 -2 -2 -1 -1 -2 -1 0 1 1 -1 -0 0 1 0 -1 -2 -2 -1 -1 -1 -1
3 4 5 5 7 4 2 -0 -1 -1 -0 0 1 2 4 6 6 4 -0 -1 -1 -1 -1 -1 -0 -0 1 0 1 2 3 4 0 -1 -1 -1 -1 -1 -1 -1 -1 -1 -1
5 6 6 7 7 7 5 7 7 6 8 8 8 8 8 7 5 5 3 1 1 1 1 1 1 2 4 6 5 3 5 4 3 2 2 -0 -1 -2 -2 -1 -1 -1 -1
3 5 6 7 7 7 8 9 9 9 9 9 9 9 9 8 8 8 9 8 8 4 7 7 7 7 7 7 7 7 6 5 4 3 2 1 0 -1 -2 -2 -1 -1 -1
7 6 8 7 8 8 8 9 9 10 10 10 9 9 9 9 9 9 9 9 9 9 9 9 9 8 8 8 9 9 8 7 6 5 3 1 1 1 0 -0 -1 -2 -2
7 9 9 9 8 8 9 9 9 9 10 10 9 9 9 9 9 9 9 10 9 9 9 9 9 9 9 9 9 9 9 9 8 7 6 2 2 2 2 2 1 1 -0
7 10 10 9 9 9 10 9 10 10 10 10 9 9 9 9 9 9 10 10 10 9 10 10 10 10 10 10 10 9 9 9 9 9 7 6 4 3 4 4 3 2 1
9 10 10 9 9 9 10 10 10 10 10 10 10 9 9 9 9 10 10 10 10 10 9 10 10 10 10 10 11 11 10 10 10 10 8 7 7 5 4 3 3 3 3
8 10 9 7 9 10 10 10 10 10 11 10 11 10 9 9 9 10 10 10 10 10 10 10 10 10 11 11 11 11 11 10 10 11 9 8 8 8 7 4 3 3 2
7 10 10 10 10 10 10 11 11 11 11 11 11 11 9 9 9 10 10 11 10 10 10 10 11 11 12 12 10 11 11 11 11 10 11 10 9 8 9 6 4 4 3
8 10 10 10 10 11 11 12 12 12 12 12 11 11 10 9 10 11 11 11 10 11 11 11 12 11 11 12 10 11 12 12 11 11 11 10 9 9 9 7 8 6 3
10 11 11 10 10 11 12 12 13 13 13 12 12 11 11 10 10 11 11 11 11 11 12 11 12 12 12 12 13 12 12 12 12 12 12 11 9 9 9 8 8 7 7
9 10 10 10 10 10 10 12 12 13 13 12 11 11 11 11 10 11 12 12 11 12 12 12 12 13 12 12 13 14 15 14 13 12 12 11 11 10 9 8 8 7 8
9 10 10 10 10 10 10 12 13 12 12 12 12 12 11 11 11 11 12 12 12 12 12 13 12 13 13 13 13 13 16 17 14 13 13 12 12 11 10 9 8 8 8
9 9 9 10 10 10 11 11 12 12 13 12 12 12 11 11 11 11 12 12 13 12 13 12 12 13 13 14 13 11 13 13 15 16 13 12 12 10 10 9 9 8 6
8 9 9 10 10 10 11 10 11 13 12 12 13 12 12 12 12 12 12 12 13 13 13 12 13 13 13 14 14 14 14 13 14 14 15 13 11 10 10 9 7 7 6
8 9 10 10 10 10 10 10 11 11 12 13 13 13 13 12 13 12 12 13 13 13 13 12 13 13 14 14 14 13 13 14 14 14 15 13 13 10 9 8 7 5 4